Zurück zum Katalog

CZ-6A DEB

AktivPO
NORAD 60663·DEBRIS·🇨🇳 China

Gestartet Aug 6, 2024 von Taiyuan Satellite Launch Center

Loading…

Nächste Überflüge (nächste 24 Stunden)

TLE

AktuellSource: Space-Track

Epoche: Sep 14, 2026, 07:29 UTC

1 60663U 24140BQ  26257.31225670  .00000131  00000-0  57914-4 0  9995
2 60663  89.0946 274.0007 0056267 281.3250  78.1620 14.16660458108482

Verfolge CZ-6A DEB in Echtzeit mit AllMySat

Download on the App Store